Regional Weather Roundup
Issued by NWS

Home | Current Version | Previous Version | Graphics & Text | Print | Product List | Glossary On
Versions: 1 2 3 4 5 6 7 8 9 10 11 12 13 14 15 16 17 18 19 20 21 22 23 24 25 26 27 28 29 30 31 32 33 34 35 36 37 38 39 40 41 42 43 44 45 46 47 48 49 50
000
ASUS43 KDMX 051007
RWRIA

WEATHER ROUNDUP FOR IOWA
NATIONAL WEATHER SERVICE DES MOINES IA
500 AM CDT TUE MAY 05 2015

NOTE: "FAIR" INDICATES FEW OR NO CLOUDS BELOW 12,000 FEET WITH NO
SIGNIFICANT WEATHER AND/OR OBSTRUCTIONS TO VISIBILITY.

* - THESE STATIONS ARE NOT NWS STATIONS...THUS NOT UNDER NWS
QUALITY CONTROL.  THEY ALSO DO NOT REPORT WEATHER SUCH
AS PRECIPITATION OR FOG.

IAZ001>003-012>014-020>022-031>034-043>046-051100-
   NORTHWEST IOWA

CITY           SKY/WX    TMP DP  RH WIND       PRES   REMARKS
CARROLL *      CLOUDY    55  55 100 NE6       30.06F FOG
CHEROKEE *     CLOUDY    59  41  51 E7        30.09F
DENISON *      CLOUDY    55  55 100 NE9       30.04S
LE MARS *      CLOUDY    57  41  54 NE6G13    30.10S
ORANGE CITY *  MOCLDY    55  37  50 E8        30.10S
SHELDON *      CLOUDY    57  37  47 E9        30.09F
SIOUX CITY     CLOUDY    56  51  84 NE8       30.08F
SPENCER        CLOUDY    56  39  53 NE10      30.11F
STORM LAKE *   DRIZZLE   52  50  93 NE14      30.10S
$$

IAZ055>058-069>071-079>083-090>094-051100-
   SOUTHWEST IOWA

CITY           SKY/WX    TMP DP  RH WIND       PRES   REMARKS
ATLANTIC *     CLOUDY    59  59 100 CALM      30.06S FOG
AUDUBON *      PTCLDY    55  54  94 CALM      30.07F FOG
CLARINDA *     CLOUDY    61  61 100 S5        30.10R
COUNCIL BLFS * CLOUDY    59  59 100 NE5       30.05S FOG
CRESTON *      CLOUDY    59  59 100 SE5       30.10R FOG
HARLAN  *      CLOUDY    57  57 100 CALM      30.09R FOG
LAMONI         CLOUDY    61  59  93 SE5       30.09S
RED OAK *      CLOUDY    59  59 100 CALM      30.08R
SHENANDOAH *   CLOUDY    61  61 100 SE6       30.07R
$$

IAZ047>049-059>061-072>074-084-051100-
   CENTRAL IOWA

CITY           SKY/WX    TMP DP  RH WIND       PRES   REMARKS
AMES           CLOUDY    60  59  96 CALM      30.09R FOG
ANKENY *       CLOUDY    61  61 100 CALM      30.08S
CHARITON *     MOCLDY    59  59 100 S6        30.11R
DES MOINES     LGT RAIN  63  61  93 SE3       30.08S FOG
GRINNELL*      CLOUDY    59  57  94 S3        30.10R
KNOXVILLE *    CLOUDY    59  57  94 S8        30.08S
MARSHALLTOWN   LGT RAIN  61  60  97 SE8       30.08R FOG
PELLA *        CLOUDY    59  59 100 S8        30.10F
PERRY *        CLOUDY    59  57  94 E5        30.06F FOG
$$

IAZ004>006-015-016-023>025-035-036-051100-
   NORTH CENTRAL IOWA

CITY           SKY/WX    TMP DP  RH WIND       PRES   REMARKS
ALGONA *       CLOUDY    59  41  51 NE7       30.11S
CLARION *      CLOUDY    55  50  82 E10       30.09S
ESTHERVILLE    MOCLDY    55  33  43 NE12      30.11F
FORT DODGE *   CLOUDY    54  48  82 NE6       30.10S
MASON CITY     CLOUDY    57  45  64 NE6       30.12S
FOREST CITY *  CLOUDY    55  41  58 NE6       30.12R
IOWA FALLS *   LGT RAIN  57  55  94 NE5       30.10R
$$

IAZ007>011-017>019-026>030-037>042-050>054-066-051100-
   NORTHEAST IOWA

CITY           SKY/WX    TMP DP  RH WIND       PRES   REMARKS
CEDAR RAPIDS   LGT RAIN  61  61 100 SE5       30.08S FOG
CHARLES CITY * CLOUDY    57  52  82 E8        30.11S
CLINTON *      CLOUDY    57  54  88 SE12G17   30.14F
DECORAH *      CLOUDY    55  52  88 E13G18    30.13R
DUBUQUE        LGT RAIN  54  52  93 E12       30.13S
MONTICELLO *   CLOUDY    59  59 100 SE14      30.11R FOG
OELWEIN *      CLOUDY    59  59 100 E12       30.12R FOG
WATERLOO       CLOUDY    61  60  97 E5        30.08S FOG
$$

IAZ064-065-067-068-078-051100-
   EAST CENTRAL IOWA

CITY           SKY/WX    TMP DP  RH WIND       PRES   REMARKS
DAVENPORT      LGT RAIN  59  57  93 E15       30.10F FOG
IOWA CITY      LGT RAIN  63  62  97 SE6       30.09F
MT. PLEASANT * CLOUDY    61  61 100 SE6       30.09R FOG
MUSCATINE *    CLOUDY    64  63  94 CALM      30.08F
QUAD CITIES    LGT RAIN  59  57  93 E12       30.08F FOG
$$

IAZ062-063-075>077-085>089-095>099-051100-
   SOUTHEAST IOWA

CITY           SKY/WX    TMP DP  RH WIND       PRES   REMARKS
BURLINGTON     CLOUDY    62  62 100 CALM      30.09R
FAIRFIELD *    CLOUDY    61  61 100 SW3       30.10R FOG
FORT MADISON * PTCLDY    61  61 100 CALM      30.10R
KEOKUK *       CLOUDY    61  61 100 SE3       30.10R FOG
OSKALOOSA *    MOCLDY    59  59 100 S5        30.10S FOG
CENTERVILLE *  CLOUDY    57  57 100 CALM      30.12S
OTTUMWA        CLOUDY    59  59 100 S3        30.09S FOG
WASHINGTON *   CLOUDY    63  63 100 CALM      30.09S
$$

ABBREVIATIONS USED IN REMARKS
   TC - TEMPERATURES IN CELSIUS
  WCI - WIND CHILL INDEX
   HX - HEAT INDEX
  VSB - VISIBILITY
$$




USA.gov is the U.S. government's official web portal to all federal, state and local government web resources and services.